When you browse on this site, cookies collect data to enhance your experience and personalize the content and advertising you see.
Visit our Privacy Policy to learn more. By continuing to use the site, you agree to this use of cookies and data.
  • In Romania
  • List of Countries
  • For 7 days
  • Water Temperature
  • Satellite Maps
  • Weather Map
  • Weather Widgets
  • user-avatar
    Login

    Hourly Weather Hannover

    Today, 26 March, Tuesday

    Time Temperature Precipitation Wind Pressure Humidity
    00:00 +2°C° 0 mm 3 mps 764 mmHg 94%
    01:00 +2°C° 0 mm 3 mps 764 mmHg 96%
    02:00 +2°C° 0 mm 3 mps 764 mmHg 96%
    03:00 +1°C° 0 mm 3 mps 764 mmHg 96%
    04:00 +1°C° 0 mm 3 mps 764 mmHg 96%
    05:00 +1°C° 0 mm 3 mps 765 mmHg 95%
    06:00 +1°C° 0 mm 4 mps 765 mmHg 94%
    07:00 +1°C° 0 mm 4 mps 765 mmHg 92%
    08:00 +2°C° 0 mm 5 mps 765 mmHg 88%
    09:00 +3°C° 0 mm 5 mps 765 mmHg 84%
    10:00 +4°C° 0 mm 6 mps 765 mmHg 79%
    11:00 +4°C° 0.1 mm 6 mps 765 mmHg 80%
    12:00 +4°C° 0.1 mm 6 mps 765 mmHg 80%
    13:00 +4°C° 0.1 mm 6 mps 765 mmHg 80%
    14:00 +5°C° 0.2 mm 6 mps 765 mmHg 80%
    15:00 +5°C° 0.2 mm 6 mps 764 mmHg 80%
    16:00 +6°C° 0.2 mm 5 mps 764 mmHg 80%
    17:00 +6°C° 0.1 mm 5 mps 764 mmHg 83%
    18:00 +6°C° 0.1 mm 4 mps 765 mmHg 85%
    19:00 +5°C° 0.1 mm 4 mps 765 mmHg 87%
    20:00 +5°C° 0 mm 3 mps 765 mmHg 89%
    21:00 +4°C° 0 mm 3 mps 766 mmHg 91%
    22:00 +4°C° 0 mm 3 mps 766 mmHg 92%
    23:00 +3°C° 0 mm 3 mps 766 mmHg 93%

    Tomorrow, 27 March, Wednesday

    Time Temperature Precipitation Wind Pressure Humidity
    00:00 +4°C° 0 mm 2 mps 766 mmHg 94%
    01:00 +3°C° 0 mm 2 mps 767 mmHg 95%
    02:00 +3°C° 0 mm 2 mps 767 mmHg 95%
    03:00 +3°C° 0 mm 2 mps 767 mmHg 95%
    04:00 +2°C° 0 mm 2 mps 767 mmHg 96%
    05:00 +2°C° 0 mm 2 mps 767 mmHg 96%
    06:00 +2°C° 0 mm 2 mps 767 mmHg 96%
    07:00 +1°C° 0 mm 3 mps 767 mmHg 96%
    08:00 +3°C° 0 mm 3 mps 767 mmHg 93%
    09:00 +4°C° 0 mm 3 mps 767 mmHg 90%
    10:00 +5°C° 0 mm 4 mps 768 mmHg 86%
    11:00 +6°C° 0.1 mm 4 mps 767 mmHg 84%
    12:00 +6°C° 0.1 mm 5 mps 767 mmHg 82%
    13:00 +7°C° 0.1 mm 5 mps 767 mmHg 80%
    14:00 +7°C° 0.6 mm 5 mps 767 mmHg 83%
    15:00 +7°C° 0.6 mm 5 mps 767 mmHg 86%
    16:00 +7°C° 0.6 mm 5 mps 767 mmHg 89%
    17:00 +7°C° 0.3 mm 5 mps 767 mmHg 90%
    18:00 +7°C° 0.3 mm 4 mps 767 mmHg 91%
    19:00 +7°C° 0.3 mm 4 mps 767 mmHg 92%
    20:00 +7°C° 0.1 mm 4 mps 768 mmHg 92%
    21:00 +7°C° 0.1 mm 4 mps 768 mmHg 93%
    22:00 +7°C° 0.1 mm 4 mps 768 mmHg 93%
    23:00 +7°C° 0.1 mm 4 mps 768 mmHg 94%

    Day after tomorrow, 28 March, Thursday

    Time Temperature Precipitation Wind Pressure Humidity
    00:00 +6°C° 0.1 mm 4 mps 768 mmHg 94%
    01:00 +7°C° 0.1 mm 3 mps 768 mmHg 95%
    02:00 +7°C° 0 mm 3 mps 769 mmHg 95%
    03:00 +7°C° 0 mm 3 mps 769 mmHg 95%
    04:00 +7°C° 0 mm 3 mps 769 mmHg 95%
    05:00 +7°C° 0.1 mm 3 mps 769 mmHg 95%
    06:00 +7°C° 0.1 mm 3 mps 769 mmHg 95%
    07:00 +7°C° 0.1 mm 3 mps 769 mmHg 95%
    08:00 +7°C° 0 mm 3 mps 770 mmHg 93%
    09:00 +8°C° 0 mm 3 mps 770 mmHg 92%
    10:00 +8°C° 0 mm 3 mps 770 mmHg 90%
    11:00 +9°C° 0 mm 3 mps 771 mmHg 87%
    12:00 +10°C° 0 mm 3 mps 771 mmHg 83%
    13:00 +12°C° 0 mm 3 mps 771 mmHg 80%
    14:00 +12°C° 0 mm 3 mps 771 mmHg 79%
    15:00 +12°C° 0 mm 3 mps 771 mmHg 78%
    16:00 +13°C° 0 mm 3 mps 771 mmHg 76%
    17:00 +12°C° 0 mm 3 mps 771 mmHg 80%
    18:00 +12°C° 0 mm 2 mps 771 mmHg 83%
    19:00 +10°C° 0 mm 2 mps 771 mmHg 87%
    20:00 +10°C° 0 mm 1 mps 771 mmHg 88%
    21:00 +10°C° 0 mm 1 mps 771 mmHg 90%
    22:00 +9°C° 0 mm 1 mps 771 mmHg 91%
    23:00 +8°C° 0 mm 1 mps 771 mmHg 91%

    29 March, Friday

    Time Temperature Precipitation Wind Pressure Humidity
    00:00 +8°C° 0 mm 1 mps 771 mmHg 92%
    01:00 +8°C° 0 mm 1 mps 771 mmHg 92%
    02:00 +6°C° 0 mm 0 mps 771 mmHg 92%
    03:00 +6°C° 0 mm 0 mps 771 mmHg 92%
    04:00 +6°C° 0 mm 0 mps 771 mmHg 92%
    05:00 +6°C° 0 mm 0 mps 771 mmHg 92%
    06:00 +6°C° 0 mm 0 mps 771 mmHg 92%
    07:00 +7°C° 0 mm 1 mps 771 mmHg 92%
    08:00 +9°C° 0 mm 1 mps 771 mmHg 85%
    09:00 +11°C° 0 mm 1 mps 771 mmHg 78%
    10:00 +13°C° 0 mm 1 mps 771 mmHg 71%
    11:00 +14°C° 0 mm 1 mps 770 mmHg 67%
    12:00 +16°C° 0 mm 1 mps 770 mmHg 62%
    13:00 +18°C° 0 mm 1 mps 769 mmHg 58%
    14:00 +18°C° 0 mm 1 mps 769 mmHg 57%
    15:00 +18°C° 0 mm 1 mps 769 mmHg 57%
    16:00 +18°C° 0 mm 1 mps 768 mmHg 56%
    17:00 +16°C° 0 mm 1 mps 768 mmHg 62%
    18:00 +14°C° 0 mm 1 mps 768 mmHg 67%
    19:00 +13°C° 0 mm 1 mps 767 mmHg 72%
    20:00 +12°C° 0 mm 1 mps 767 mmHg 76%
    21:00 +12°C° 0 mm 1 mps 767 mmHg 80%
    22:00 +10°C° 0 mm 2 mps 767 mmHg 83%
    23:00 +10°C° 0 mm 1 mps 767 mmHg 85%

    30 March, Saturday

    Time Temperature Precipitation Wind Pressure Humidity
    00:00 +10°C° 0 mm 1 mps 767 mmHg 86%
    01:00 +9°C° 0 mm 1 mps 767 mmHg 87%
    02:00 +9°C° 0 mm 1 mps 766 mmHg 88%
    03:00 +9°C° 0 mm 1 mps 766 mmHg 88%
    04:00 +8°C° 0 mm 1 mps 766 mmHg 88%
    05:00 +8°C° 0 mm 1 mps 766 mmHg 88%
    06:00 +8°C° 0 mm 1 mps 765 mmHg 88%
    07:00 +8°C° 0 mm 1 mps 765 mmHg 87%
    08:00 +9°C° 0 mm 2 mps 765 mmHg 81%
    09:00 +12°C° 0 mm 2 mps 765 mmHg 74%
    10:00 +14°C° 0 mm 2 mps 764 mmHg 67%
    11:00 +15°C° 0 mm 2 mps 764 mmHg 62%
    12:00 +16°C° 0 mm 2 mps 763 mmHg 58%
    13:00 +17°C° 0 mm 2 mps 763 mmHg 54%
    14:00 +17°C° 0 mm 2 mps 762 mmHg 53%
    15:00 +17°C° 0 mm 2 mps 762 mmHg 52%
    16:00 +17°C° 0 mm 2 mps 761 mmHg 51%
    17:00 +16°C° 0 mm 2 mps 761 mmHg 55%
    18:00 +15°C° 0 mm 1 mps 761 mmHg 59%
    19:00 +14°C° 0 mm 1 mps 761 mmHg 63%
    20:00 +13°C° 0 mm 1 mps 761 mmHg 69%
    21:00 +12°C° 0 mm 2 mps 761 mmHg 74%
    22:00 +10°C° 0 mm 2 mps 761 mmHg 80%
    23:00 +9°C° 0 mm 2 mps 761 mmHg 83%

    31 March, Sunday

    Time Temperature Precipitation Wind Pressure Humidity
    00:00 +8°C° 0 mm 2 mps 762 mmHg 86%
    01:00 +7°C° 0 mm 3 mps 762 mmHg 89%
    02:00 +7°C° 0.1 mm 3 mps 762 mmHg 88%
    03:00 +6°C° 0.1 mm 4 mps 762 mmHg 87%
    04:00 +6°C° 0.1 mm 5 mps 762 mmHg 86%
    05:00 +5°C° 0 mm 4 mps 763 mmHg 83%
    06:00 +5°C° 0 mm 4 mps 763 mmHg 80%
    07:00 +4°C° 0 mm 4 mps 764 mmHg 77%
    08:00 +5°C° 0 mm 5 mps 764 mmHg 70%
    09:00 +6°C° 0 mm 5 mps 765 mmHg 63%
    10:00 +6°C° 0 mm 5 mps 765 mmHg 56%
    11:00 +7°C° 0 mm 5 mps 766 mmHg 51%
    12:00 +7°C° 0 mm 5 mps 766 mmHg 46%
    13:00 +7°C° 0 mm 5 mps 766 mmHg 40%
    14:00 +7°C° 0 mm 5 mps 766 mmHg 41%
    15:00 +7°C° 0 mm 5 mps 766 mmHg 41%
    16:00 +7°C° 0 mm 5 mps 766 mmHg 42%
    17:00 +6°C° 0 mm 5 mps 766 mmHg 44%
    18:00 +5°C° 0 mm 4 mps 766 mmHg 46%
    19:00 +4°C° 0 mm 3 mps 767 mmHg 48%
    20:00 +3°C° 0 mm 3 mps 767 mmHg 51%
    21:00 +3°C° 0 mm 3 mps 767 mmHg 53%
    22:00 +2°C° 0 mm 3 mps 768 mmHg 56%
    23:00 +2°C° 0 mm 2 mps 768 mmHg 59%
    Show more